Weather History for Joplin, MO

Change the Weather History Date:

Monday, June 24, 2013

  Actual Average Record
Temperature  
Mean Temperature 83 °F 78 °F  
Max Temperature 91 °F 88 °F 100 °F (1954)
Min Temperature 74 °F 68 °F 51 °F (1961)
Degree Days  
Heating Degree Days 0 0  
Month to date heating degree days 12 2  
Since 1 June heating degree days 12 2  
Since 1 July heating degree days 4258 4071  
Cooling Degree Days 18 13  
Month to date cooling degree days 231 238  
Year to date cooling degree days 375 418  
Since 1 June cooling degree days 231 238  
Growing Degree Days 32 (Base 50)    
Moisture  
Dew Point 69 °F    
Average Humidity 65    
Maximum Humidity 79    
Minimum Humidity 50    
Precipitation  
Precipitation 0.00 in 0.19 in 2.02 in (1968)
Month to date precipitation 5.39 4.84  
Year to date precipitation 27.78 22.79  
Snow  
Snow 0.00 in - - ()
Month to date snowfall 0.0  
Since 1 June snowfall 0.0  
Snow Depth 0.00 in    
Sea Level Pressure  
Sea Level Pressure 29.95 in    
Wind  
Wind Speed 14 mph (South)    
Max Wind Speed 25 mph    
Max Gust Speed 31 mph    
Visibility 10 miles    
Events      
T = Trace of Precipitation, MM = Missing Value Source: NWS Daily Summary

Daily Weather History Graph

Daily Weather History Graph

Search for Another Location

Airport:

Trip Planner

Search our weather history database for the weather conditions in past years. The results will help you decide how hot, cold, wet, or windy it might be!

Date:

Astronomy

Jun. 24, 2013 Rise Set
Actual Time 5:59 AM CDT 8:41 PM CDT
Civil Twilight 5:28 AM CDT 9:12 PM CDT
Nautical Twilight 4:49 AM CDT 9:51 PM CDT
Astronomical Twilight 4:05 AM CDT 10:34 PM CDT
Moon 9:48 PM CDT (6/24) 7:25 AM CDT (6/24)
Length of Visible Light 15h 44m
Length of Day
14h 42m
Full, 98% of the Moon is Illuminated
Jun 24
Full
Jun 29
Last Quarter
Jul 8
New
Jul 15
First Quarter
Jul 22
Full

Hourly Weather History & Observations

Time (CDT) Temp. Heat Index Dew Point Humidity Pressure Visibility Wind Dir Wind Speed Gust Speed Precip Events Conditions
12:53 AM 75.9 °F - 66.9 °F 74% 29.96 in 10.0 mi South 10.4 mph - N/A   Clear
1:53 AM 75.0 °F - 66.9 °F 76% 29.96 in 10.0 mi South 10.4 mph - N/A   Clear
2:53 AM 75.0 °F - 66.9 °F 76% 29.96 in 10.0 mi SSE 8.1 mph - N/A   Clear
3:53 AM 75.0 °F - 66.9 °F 76% 29.96 in 10.0 mi South 10.4 mph - N/A   Clear
4:53 AM 75.0 °F - 68.0 °F 79% 29.96 in 10.0 mi South 13.8 mph - N/A   Clear
5:53 AM 75.0 °F - 68.0 °F 79% 29.96 in 10.0 mi South 13.8 mph - N/A   Clear
6:53 AM 75.9 °F - 68.0 °F 76% 29.97 in 10.0 mi South 16.1 mph 23.0 mph N/A   Clear
7:53 AM 79.0 °F - 69.1 °F 72% 29.98 in 10.0 mi South 16.1 mph 23.0 mph N/A   Clear
8:53 AM 82.0 °F 85.9 °F 70.0 °F 67% 30.00 in 10.0 mi South 15.0 mph 24.2 mph N/A   Clear
9:53 AM 82.9 °F 87.5 °F 71.1 °F 67% 29.99 in 10.0 mi South 13.8 mph - N/A   Clear
10:53 AM 84.9 °F 90.1 °F 71.1 °F 63% 29.97 in 10.0 mi South 19.6 mph 28.8 mph N/A   Clear
11:53 AM 87.1 °F 92.0 °F 70.0 °F 57% 29.98 in 10.0 mi South 19.6 mph 26.5 mph N/A   Clear
12:53 PM 89.1 °F 95.0 °F 71.1 °F 55% 29.97 in 10.0 mi SSW 17.3 mph 26.5 mph N/A   Partly Cloudy
1:53 PM 88.0 °F 92.9 °F 70.0 °F 55% 29.95 in 10.0 mi SSW 17.3 mph - N/A   Partly Cloudy
2:53 PM 88.0 °F 93.8 °F 71.1 °F 57% 29.94 in 10.0 mi South 17.3 mph 24.2 mph N/A   Scattered Clouds
3:53 PM 90.0 °F 96.4 °F 71.1 °F 54% 29.95 in 10.0 mi SSW 11.5 mph - N/A   Scattered Clouds
4:53 PM 90.0 °F 93.6 °F 68.0 °F 48% 29.92 in 10.0 mi South 16.1 mph 21.9 mph N/A   Partly Cloudy
5:53 PM 88.0 °F 90.7 °F 66.9 °F 49% 29.90 in 10.0 mi South 19.6 mph 27.6 mph N/A   Clear
6:53 PM 87.1 °F 90.6 °F 68.0 °F 53% 29.90 in 10.0 mi South 12.7 mph 20.7 mph N/A   Clear
7:53 PM 84.0 °F 87.0 °F 68.0 °F 58% 29.90 in 10.0 mi South 11.5 mph - N/A   Clear
8:53 PM 81.0 °F 83.3 °F 66.9 °F 62% 29.89 in 10.0 mi South 11.5 mph - N/A   Clear
9:53 PM 81.0 °F 83.3 °F 66.9 °F 62% 29.91 in 10.0 mi South 12.7 mph - N/A   Clear
10:53 PM 80.1 °F 82.3 °F 66.9 °F 64% 29.93 in 10.0 mi South 11.5 mph 20.7 mph N/A   Clear
11:53 PM 79.0 °F - 66.9 °F 66% 29.93 in 10.0 mi South 15.0 mph 21.9 mph N/A   Clear